Location: Columbia
(38.9520°N, 92.3340°W)
Time: 07:44:49
(UTC-05:00)

FENGYUN 3A - Visible Passes

Search period start: 28 August 2015 00:00
Search period end: 07 September 2015 00:00
Orbit: 819 x 834 km, 98.5° (Epoch: 28 August)

Date Brightness Start Highest point End Pass type
(mag) Time Alt. Az. Time Alt. Az. Time Alt. Az.
28 Aug 4.4 20:34:46 11° SE 20:39:11 32° ENE 20:43:55 10° N visible
28 Aug 5.2 22:16:16 18° SW 22:19:26 30° W 22:24:06 10° NW visible
29 Aug 4.9 20:16:33 10° ESE 20:20:31 22° ENE 20:24:38 10° NNE visible
29 Aug 4.5 21:57:20 22° SSW 22:00:30 45° W 22:05:37 10° NNW visible
30 Aug 3.8 21:38:24 24° S 21:41:37 69° WSW 21:46:59 10° NNW visible
31 Aug 3.5 21:19:28 24° SSE 21:22:48 81° ENE 21:28:11 10° N visible
31 Aug 6.3 23:02:03 10° WSW 23:03:50 11° W 23:05:13 10° WNW visible
01 Sep 3.8 21:00:33 21° SE 21:04:02 54° ENE 21:09:16 10° N visible
01 Sep 5.9 22:42:03 13° SW 22:44:43 18° W 22:48:08 10° NW visible
02 Sep 4.3 20:41:37 16° SE 20:45:19 37° ENE 20:50:13 10° N visible
02 Sep 5.4 22:23:08 19° SW 22:25:40 26° W 22:30:06 10° NW visible
03 Sep 4.7 20:22:42 11° ESE 20:26:38 25° ENE 20:31:00 10° NNE visible
03 Sep 4.8 22:04:12 25° SSW 22:06:42 39° W 22:11:42 10° NNW visible
04 Sep 5.2 20:04:38 10° ESE 20:07:59 18° ENE 20:11:32 10° NNE visible
04 Sep 4.1 21:45:17 30° SSW 21:47:49 59° W 21:53:07 10° NNW visible
05 Sep 3.6 21:26:22 32° SSE 21:28:59 88° WSW 21:34:23 10° NNW visible
06 Sep 3.6 21:07:27 28° SE 21:10:12 63° ENE 21:15:31 10° N visible
06 Sep 6.0 22:48:57 13° WSW 22:51:00 15° W 22:53:54 10° NW visible
